Location: Broletto
(44.6000°N, 10.5833°E)
Time: 01:16:55
(UTC+00:00)

ATLAS 5 CENTAUR R/B - Pass Details

Date: 18 April 2021
Orbit: 256 x 14171 km, 60.8° (Epoch: 08 May)

Event Time Altitude Azimuth Distance (km) Brightness Sun altitude
Rises 19:27:45 0° 314° (NW) 1,917 6.3 -14.0°
Reaches altitude 10° 19:29:24 10° 308° (NW) 1,047 4.7 -14.3°
Maximum altitude 19:31:13 53° 229° (SW) 366 1.0 -14.5°
Enters shadow 19:32:00 32° 168° (SSE) 579 1.6 -14.7°
